TimeMDT,TemperatureF,Dew PointF,Humidity,Sea Level PressureIn,VisibilityMPH,Wind Direction,Wind SpeedMPH,Gust SpeedMPH,PrecipitationIn,Events,Conditions,WindDirDegrees,DateUTC
12:25 AM,19.4,15.8,86,30.11,1.0,NW,13.8,19.6,0.01,Snow,Light Snow,320,2013-04-09 06:25:00
12:37 AM,19.4,15.8,86,30.11,0.8,NNW,11.5,-,0.01,Snow,Light Snow,330,2013-04-09 06:37:00
12:51 AM,19.4,15.8,86,30.12,1.0,NNW,13.8,-,0.01,Snow,Light Snow,330,2013-04-09 06:51:00
12:53 AM,19.0,15.1,85,30.27,1.0,NW,11.5,-,0.01,Snow,Light Snow,320,2013-04-09 06:53:00
1:08 AM,19.4,15.8,86,30.13,0.8,NNW,10.4,-,0.00,Snow,Light Snow,330,2013-04-09 07:08:00
1:53 AM,18.0,15.1,88,30.29,1.0,NNW,11.5,-,0.02,Snow,Light Snow,330,2013-04-09 07:53:00
2:05 AM,17.6,15.8,93,30.13,0.8,NNW,15.0,21.9,0.00,Snow,Light Snow,340,2013-04-09 08:05:00
2:19 AM,17.6,15.8,93,30.13,0.5,NNW,12.7,-,0.01,Fog-Snow,Snow,330,2013-04-09 08:19:00
2:46 AM,17.6,15.8,93,30.13,1.0,NNW,16.1,-,0.02,Snow,Light Snow,330,2013-04-09 08:46:00
2:53 AM,18.0,15.1,88,30.30,1.0,NW,13.8,-,0.02,Snow,Light Snow,320,2013-04-09 08:53:00
3:12 AM,17.6,15.8,93,30.13,0.8,NNW,16.1,23.0,0.00,Snow,Light Snow,330,2013-04-09 09:12:00
3:22 AM,17.6,15.8,93,30.13,1.0,NW,16.1,-,0.00,Snow,Light Snow,310,2013-04-09 09:22:00
3:53 AM,18.0,15.1,88,30.30,1.2,NW,10.4,-,0.00,Snow,Light Snow,320,2013-04-09 09:53:00
4:12 AM,17.6,15.8,93,30.14,1.2,NW,12.7,-,0.00,Snow,Light Snow,320,2013-04-09 10:12:00
4:50 AM,17.6,14.0,86,30.16,1.2,NW,13.8,-,0.01,Snow,Light Snow,320,2013-04-09 10:50:00
4:53 AM,17.1,14.0,88,30.32,1.2,NW,12.7,-,0.01,Snow,Light Snow,320,2013-04-09 10:53:00
5:01 AM,17.6,14.0,86,30.16,1.5,NW,15.0,-,0.00,Snow,Light Snow,320,2013-04-09 11:01:00
5:16 AM,17.6,12.2,79,30.16,2.5,NW,12.7,-,0.00,Snow,Light Snow,320,2013-04-09 11:16:00
5:31 AM,17.6,12.2,79,30.17,3.0,NW,13.8,-,0.00,Snow,Light Snow,320,2013-04-09 11:31:00
5:38 AM,17.6,12.2,79,30.17,2.5,NW,15.0,-,0.00,Snow,Light Snow,320,2013-04-09 11:38:00
5:53 AM,17.1,12.9,84,30.34,2.5,NW,15.0,-,0.00,Snow,Light Snow,320,2013-04-09 11:53:00
6:03 AM,17.6,12.2,79,30.17,2.5,NW,13.8,-,0.00,Snow,Light Snow,320,2013-04-09 12:03:00
6:13 AM,17.6,12.2,79,30.17,4.0,NW,15.0,-,0.00,Snow,Light Snow,320,2013-04-09 12:13:00
6:36 AM,17.6,12.2,79,30.18,4.0,NW,13.8,-,0.00,Snow,Light Snow,320,2013-04-09 12:36:00
6:53 AM,17.1,12.0,81,30.37,3.0,NNW,13.8,-,0.00,Snow,Light Snow,330,2013-04-09 12:53:00
7:15 AM,17.6,12.2,79,30.21,2.0,NW,16.1,-,0.00,Snow,Light Snow,320,2013-04-09 13:15:00
7:22 AM,17.6,12.2,79,30.22,1.2,NW,18.4,-,0.00,Snow,Light Snow,320,2013-04-09 13:22:00
7:32 AM,17.6,12.2,79,30.22,1.0,NW,18.4,-,0.00,Snow,Light Snow,320,2013-04-09 13:32:00
7:53 AM,17.1,12.0,81,30.41,1.2,NW,17.3,25.3,0.00,Snow,Light Snow,320,2013-04-09 13:53:00
8:11 AM,17.6,12.2,79,30.24,0.8,NNW,17.3,-,0.00,Snow,Light Snow,330,2013-04-09 14:11:00
8:27 AM,17.6,12.2,79,30.25,1.0,NW,16.1,-,0.00,Snow,Light Snow,320,2013-04-09 14:27:00
8:41 AM,17.6,12.2,79,30.25,0.8,NNW,15.0,-,0.00,Snow,Light Snow,340,2013-04-09 14:41:00
8:53 AM,17.1,12.9,84,30.43,0.8,NNW,15.0,-,0.00,Snow,Light Snow,340,2013-04-09 14:53:00
9:06 AM,17.6,14.0,86,30.26,0.5,NNW,12.7,-,0.00,Fog-Snow,Light Snow,330,2013-04-09 15:06:00
9:46 AM,17.6,14.0,86,30.26,0.8,NNW,16.1,-,0.00,Snow,Light Snow,340,2013-04-09 15:46:00
9:53 AM,19.0,14.0,81,30.44,1.0,NNW,15.0,-,0.00,Snow,Light Snow,340,2013-04-09 15:53:00
10:12 AM,19.4,12.2,74,30.28,2.5,NNW,11.5,-,0.00,Snow,Light Snow,340,2013-04-09 16:12:00
10:22 AM,19.4,12.2,74,30.28,4.0,NNW,11.5,-,0.00,,Haze,340,2013-04-09 16:22:00
10:53 AM,19.9,12.0,71,30.44,9.0,NNW,15.0,-,0.00,,Overcast,340,2013-04-09 16:53:00
11:53 AM,21.9,12.0,66,30.43,10.0,North,12.7,-,N/A,,Overcast,350,2013-04-09 17:53:00
12:53 PM,24.1,14.0,65,30.41,10.0,NW,13.8,-,N/A,,Overcast,310,2013-04-09 18:53:00
1:37 PM,23.0,14.0,68,30.24,2.5,NNW,12.7,-,0.00,Snow,Light Snow,340,2013-04-09 19:37:00
1:46 PM,24.8,14.0,64,30.24,5.0,North,9.2,-,0.00,,Haze,350,2013-04-09 19:46:00
1:53 PM,24.1,12.9,62,30.40,8.0,North,9.2,-,0.00,,Overcast,360,2013-04-09 19:53:00
2:15 PM,24.8,14.0,64,30.24,2.5,NNW,8.1,-,0.00,Snow,Light Snow,340,2013-04-09 20:15:00
2:25 PM,24.8,14.0,64,30.24,5.0,NNE,8.1,-,0.00,Snow,Light Snow,30,2013-04-09 20:25:00
2:36 PM,26.6,15.8,64,30.24,6.0,NNW,12.7,-,0.00,Snow,Light Snow,330,2013-04-09 20:36:00
2:53 PM,26.1,15.1,63,30.39,10.0,NNW,11.5,-,0.00,,Overcast,340,2013-04-09 20:53:00
3:53 PM,25.0,14.0,63,30.39,10.0,ENE,5.8,-,N/A,,Overcast,60,2013-04-09 21:53:00
4:53 PM,25.0,15.1,66,30.39,10.0,ESE,5.8,-,N/A,,Overcast,110,2013-04-09 22:53:00
5:41 PM,24.8,15.8,69,30.24,2.5,SE,4.6,-,0.00,Snow,Light Snow,140,2013-04-09 23:41:00
5:51 PM,24.8,17.6,74,30.25,1.8,SE,3.5,-,0.00,Snow,Light Snow,140,2013-04-09 23:51:00
5:53 PM,24.1,17.1,75,30.41,1.8,SE,3.5,-,0.00,Snow,Light Snow,140,2013-04-09 23:53:00
6:48 PM,24.8,19.4,80,30.26,1.8,South,9.2,-,0.00,Snow,Light Snow,170,2013-04-10 00:48:00
6:53 PM,23.0,19.9,88,30.42,2.0,South,10.4,-,0.00,Snow,Light Snow,170,2013-04-10 00:53:00
7:11 PM,23.0,19.4,86,30.25,4.0,South,9.2,-,0.00,Snow,Light Snow,170,2013-04-10 01:11:00
7:53 PM,21.9,19.0,89,30.42,10.0,SSE,9.2,-,0.00,,Overcast,160,2013-04-10 01:53:00
8:53 PM,21.9,18.0,85,30.42,10.0,SSE,9.2,-,N/A,,Overcast,160,2013-04-10 02:53:00
9:53 PM,23.0,15.1,72,30.42,10.0,WNW,5.8,-,N/A,,Scattered Clouds,290,2013-04-10 03:53:00
10:53 PM,17.1,10.9,77,30.43,10.0,Calm,Calm,-,N/A,,Mostly Cloudy,0,2013-04-10 04:53:00
11:53 PM,17.1,12.0,81,30.41,10.0,Calm,Calm,-,N/A,,Overcast,0,2013-04-10 05:53:00